sat.trackr.live / text

‹ back to catalog

STARLINK-6335

NORAD 56527 · 2023-065AA

PAYLOAD ACTIVE UNKNOWN

§ Identity

Operator
Country
US
Launch date
2023-05-14
Launch site
AFETR
Launch vehicle
Mass (kg)
RCS (m²)

Purposes: comms

External: N2YO · Heavens-Above · Gunter

§ Orbital elements

Epoch: 2026-05-25T00:55:36.253056Z

Period
94.27 min
Inclination
43.0012°
Eccentricity
0.0000804
Mean motion
15.27573276 rev/d
Perigee alt
482.5 km
Apogee alt
483.6 km
Semi-major
6,861.2 km
B*
3.3901e-5
RAAN
144.9186°
Arg perigee
285.2480°
Mean anomaly
74.8283°
Rev number
16,823

§ Raw data

STARLINK-63351 56527U 23065AA  26145.03861404  .00000671  00000+0  33901-4 0  99982 56527  43.0012 144.9186 0000804 285.2480  74.8283 15.27573276168238

JSON: /api/v1/satellites/56527 · /tle

For live sub-satellite position, see the globe view (requires WebGL).

§ Visibility from observer

Set your observer location to see the next 7 days of passes ≥ 10°. The values pass through the URL so the page stays shareable.

No JS? Fill the form by hand. The geolocation button needs JavaScript.